Flag for Switzerland Weather past 2 weeks in Aarau, Aargau, Switzerland

Now
51 °F

Cool.


Feels Like: 47 °F
Forecast: 31 / 42 °F
Wind: 8 mph from Southwest

Location: Wynau

Current Time: Mar 3, 2015 at 6:15:00 PM

Latest Report: Mar 3, 2015 at 5:00 PM


Visibility: N/A

Pressure: 30.16 "Hg

Humidity: 44%

Dew point: 29 °F

Location of AarauLocation

Historic Weather in Aarau — Graph

°F

Aarau temperature yesterday

Maximum temperature yesterday: 49 °F (at 11:00 AM)
Minimum temperature yesterday: 41 °F (at 11:00 PM)
Average temperature yesterday: 46 °F

Past Weeks' High & Low Weather Summary

 TemperatureHumidityPressure
High52 °F (Mar 3, 3:00 PM)100% (Feb 20, 5:00 AM)30.73 "Hg (Feb 20, 5:00 AM)
Low23 °F (Feb 20, 7:00 AM)38% (Feb 26, 4:00 PM)29.62 "Hg (Feb 21, 10:00 AM)
Average36 °F85%30.10 "Hg
* Reported Feb 16 4:00 PM — Mar 3 4:00 PM, Aarau, Weather by CustomWeather, © 2015

Note: Actual official high and low records may vary slightly from our data, if they occured in-between our weather recording intervals... More about our weather records

Advertising

Aarau weather history for previous 24 hours

 ConditionsComfort  
Time TempWeatherWind HumidityBarometerVisibility
4:00 PM
Tue, Mar 3
52 °FCool.9 mph44%30.16 "HgN/A
3:00 PM52 °FCool.9 mph42%30.18 "HgN/A
2:00 PM50 °FCool.9 mph48%30.20 "HgN/A
1:00 PM49 °FCool.7 mph50%30.22 "HgN/A
12:00 PM48 °FCool.6 mph49%30.24 "HgN/A
11:00 AM45 °FQuite cool.1 mph60%30.27 "HgN/A
10:00 AM40 °FChilly.2 mph70%30.29 "HgN/A
9:00 AM34 °FChilly.No wind84%30.30 "HgN/A
8:00 AM31 °FChilly.1 mph94%30.31 "HgN/A
7:00 AM31 °FChilly.1 mph92%30.30 "HgN/A
6:00 AM33 °FChilly.1 mph91%30.29 "HgN/A
5:00 AM34 °FChilly.2 mph85%30.29 "HgN/A
4:00 AM36 °FChilly.No wind79%30.27 "HgN/A
3:00 AM37 °FChilly.3 mph68%30.27 "HgN/A
2:00 AM37 °FChilly.3 mph69%30.27 "HgN/A
1:00 AM37 °FChilly.3 mph71%30.27 "HgN/A
12:00 AM38 °FChilly.2 mph67%30.25 "HgN/A
11:00 PM
Mon, Mar 2
41 °FQuite cool.7 mph55%30.23 "HgN/A
9:00 PM44 °FQuite cool.14 mph57%30.14 "HgN/A
8:00 PM46 °FCool.10 mph56%30.08 "HgN/A
7:00 PM45 °FCool.13 mph61%30.05 "HgN/A
6:00 PM46 °FCool.13 mph57%30.01 "HgN/A
Weather by CustomWeather, © 2015

See weather overviewHow to use our weather pages